Temperature
4 4 4 4 4 4 4 4 3 3 3 4 4 4 4 4 4 3 4 4 4 4 4 4 3 3 3 3 3 3 3 3 3 3 3 3 3 4
3 3 3 3 4 4 3 3 3 3 3 3 3 3 3 3 3 3 3 3 3 3 3 3 3 3 3 3 3 3 3 3 3 3 3 3 3 3
3 3 3 3 3 3 3 3 3 3 2 3 3 3 3 3 3 3 3 3 3 3 3 3 3 3 3 3 3 3 3 3 2 2 2 2 2 2
3 3 3 3 3 3 3 2 3 3 2 2 2 2 2 2 2 2 2 2 2 2 2 2 2 2 2 2 2 2 2 2 2 2 2 2 2 2
2 2 2 2 2 2 2 2 2 2 2 2 2 2 2 2 2 2 2 2 2 2 2 2 2 2 2 2 2 2 2 2 2 2 2 1 1 1
2 2 2 2 2 2 2 2 2 1 1 1 1 1 1 1 1 1 1 1 2 2 1 1 1 2 2 2 2 2 2 2 1 1 1 1 1 1
1 1 1 1 1 1 1 1 1 1 1 1 1 1 1 1 1 1 1 1 1 1 1 1 1 1 1 1 2 2 1 1 1 1 1 1 1 1
1 1 1 1 1 1 1 1 1 1 1 1 1 0 0 0 0 0 0 0 0 0 1 1 1 1 1 1 1 1 1 1 1 1 0 0 0 0
0 0 0 1 1 1 1 1 0 0 0 0 0 0 -0 0 -0 -0 -0 -0 -0 -0 -0 0 0 0 0 0 0 1 1 1 0 0 -0 -0 -0 0
0 -0 -0 0 0 0 0 0 0 -0 -0 -0 -0 -0 -0 -1 -1 -1 -1 -1 -0 -1 -1 -1 -0 -0 -0 -0 -0 0 0 0 -0 -0 -0 -0 -0 -0
-0 -1 -1 -0 -0 -0 -0 -0 -0 -0 -1 -1 -1 -1 -1 -1 -1 -1 -1 -1 -1 -1 -1 -1 -1 -1 -0 -0 -0 -0 -0 -0 -0 -0 -1 -1 -1 -1
-1 -1 -1 -1 -1 -1 -1 -1 -1 -1 -1 -1 -1 -1 -1 -1 -1 -1 -1 -2 -2 -2 -2 -2 -1 -2 -1 -1 -1 -1 -1 -1 -1 -1 -1 -1 -1 -1
-2 -2 -2 -2 -2 -2 -2 -2 -2 -2 -2 -2 -2 -2 -2 -1 -1 -1 -1 -2 -2 -2 -2 -2 -2 -2 -2 -2 -1 -1 -1 -1 -1 -1 -1 -1 -1 -1
-2 -2 -2 -2 -2 -2 -2 -2 -2 -2 -2 -2 -2 -2 -2 -2 -2 -2 -2 -2 -2 -2 -2 -2 -2 -2 -2 -3 -2 -2 -2 -2 -2 -2 -2 -1 -1 -1
-3 -3 -3 -3 -3 -3 -3 -3 -3 -3 -3 -2 -2 -2 -2 -2 -2 -2 -2 -2 -2 -2 -2 -2 -2 -2 -2 -3 -3 -2 -2 -2 -2 -2 -2 -2 -2 -2
-3 -3 -3 -3 -3 -3 -3 -3 -3 -3 -3 -3 -3 -3 -3 -2 -2 -2 -2 -2 -2 -2 -3 -3 -3 -3 -3 -3 -3 -3 -3 -3 -2 -2 -2 -2 -2 -2
-4 -4 -4 -4 -4 -4 -4 -4 -3 -3 -3 -3 -3 -3 -3 -3 -3 -2 -3 -3 -3 -3 -3 -3 -3 -3 -3 -3 -3 -3 -3 -3 -3 -3 -3 -3 -2 -2
-4 -4 -4 -4 -4 -4 -4 -4 -4 -4 -4 -4 -3 -3 -3 -3 -3 -3 -3 -3 -3 -3 -3 -3 -3 -3 -3 -3 -3 -3 -3 -3 -3 -3 -3 -3 -3 -2
-4 -4 -4 -4 -4 -4 -4 -4 -4 -4 -4 -4 -4 -4 -4 -4 -4 -3 -3 -4 -3 -3 -3 -3 -3 -4 -4 -4 -3 -3 -3 -3 -3 -3 -3 -3 -3 -2
-5 -5 -5 -5 -5 -5 -5 -5 -5 -4 -4 -4 -4 -4 -4 -4 -4 -4 -4 -4 -4 -4 -4 -3 -4 -4 -4 -4 -4 -4 -3 -3 -3 -3 -3 -3 -3 -3
-5 -5 -5 -5 -5 -5 -5 -5 -5 -5 -5 -5 -5 -5 -5 -4 -4 -4 -4 -4 -4 -4 -4 -4 -4 -4 -4 -4 -4 -4 -4 -3 -3 -3 -3 -3 -3 -3
-5 -5 -5 -5 -5 -5 -5 -5 -5 -5 -5 -5 -5 -5 -5 -5 -5 -5 -4 -4 -4 -4 -4 -4 -4 -4 -4 -4 -4 -4 -4 -3 -3 -3 -3 -3 -3 -3
-6 -6 -6 -6 -6 -6 -5 -5 -5 -5 -5 -5 -5 -5 -5 -5 -5 -5 -4 -4 -4 -4 -4 -4 -4 -4 -4 -4 -4 -4 -4 -3 -3 -3 -3 -3 -3 -3
Wind_Speed
6 7 6 5 5 5 6 6 6 6 6 5 4 4 4 5 5 6 7 8 9 10 11 11 12 12 13 13 14 14 13 14 14 15 15 16 15 15
5 6 6 5 5 5 5 6 6 7 7 5 5 5 5 6 7 8 8 9 10 10 11 11 12 12 13 13 13 13 14 14 14 14 15 15 14 14
6 7 7 7 5 5 5 6 6 6 7 7 6 6 7 6 6 7 7 7 7 9 10 11 12 13 13 13 13 13 13 13 13 14 14 14 14 14
7 7 7 6 7 6 6 7 6 6 7 8 7 6 6 6 6 7 6 7 7 9 10 11 12 12 12 13 12 12 12 12 13 14 14 13 13 14
7 7 7 6 7 6 7 6 5 5 6 7 7 5 5 5 6 6 7 7 7 8 9 10 11 12 12 11 11 11 11 11 12 12 12 12 12 13
6 6 6 6 7 7 6 6 6 5 5 5 6 5 5 5 5 5 6 6 6 6 7 8 10 11 11 10 10 9 10 10 11 11 12 11 11 12
5 5 5 6 7 6 5 6 5 5 5 5 5 5 5 4 4 4 6 6 7 5 6 6 6 6 6 7 7 8 9 9 10 11 11 11 11 11
5 4 4 4 5 5 6 6 6 6 6 6 6 6 6 5 5 5 5 5 5 3 5 6 5 6 5 5 6 7 8 9 9 10 10 10 10 10
4 4 3 4 4 4 4 5 6 7 8 7 7 7 7 6 6 6 6 6 6 5 5 5 5 6 5 5 6 7 7 8 8 8 9 9 9 8
4 4 4 4 4 4 3 4 4 5 6 6 6 7 6 6 6 6 7 7 6 4 4 4 5 5 5 5 5 6 6 7 7 7 8 9 9 8
3 3 3 4 4 4 3 4 4 4 3 4 6 6 6 6 6 4 5 5 5 4 3 3 4 5 5 4 4 5 6 7 7 8 8 9 9 8
2 3 3 3 4 4 3 4 4 5 4 3 3 4 4 4 5 4 5 5 4 3 2 3 3 3 3 3 4 4 5 6 7 7 8 8 8 6
2 2 2 3 3 4 4 4 5 5 4 4 4 3 3 3 3 3 4 4 5 4 3 2 3 3 3 3 4 4 4 4 5 6 7 7 7 6
2 2 2 3 3 4 3 3 4 4 3 3 3 3 3 3 3 3 4 4 5 5 5 4 3 3 3 4 4 4 4 4 4 5 5 7 6 7
2 3 3 4 4 3 3 4 4 3 3 3 3 3 3 4 3 3 3 3 4 4 4 4 4 4 3 4 4 4 4 4 4 4 5 5 5 4
2 2 3 3 3 3 3 3 2 2 2 3 3 3 3 3 3 3 3 3 3 2 3 3 4 4 3 4 4 4 4 3 4 5 5 5 5 4
2 1 1 2 2 2 2 2 2 2 2 3 3 3 3 3 3 3 2 2 2 3 3 3 3 3 4 4 3 4 4 4 4 4 4 4 4 4
2 1 1 2 2 2 2 3 2 2 3 3 3 3 3 3 3 2 2 2 2 3 3 3 3 3 2 2 3 4 4 4 4 4 4 4 5 4
2 1 2 2 2 2 3 3 3 3 3 2 2 3 3 3 3 2 2 2 2 2 2 3 2 2 2 3 2 2 3 4 4 4 4 4 4 5
2 2 2 2 2 3 3 3 3 2 2 2 2 2 3 3 3 2 2 2 2 2 3 2 2 2 2 3 3 4 4 4 4 4 4 4 4 5
2 2 2 2 3 3 3 3 3 3 3 2 2 2 2 2 2 3 2 2 2 2 2 3 3 4 3 2 2 3 4 4 4 4 4 4 3 3
3 2 3 3 3 3 3 3 3 2 2 2 2 3 2 2 3 3 3 2 2 2 3 3 3 3 2 1 3 4 4 5 5 4 4 2 2 2
3 3 3 3 3 3 3 3 3 3 2 2 3 3 2 2 3 3 2 2 2 2 2 2 2 2 2 2 3 3 5 5 4 4 3 4 5 6
Wind_Direction
242 243 246 247 244 249 250 250 255 267 269 266 266 263 274 279 279 280 282 284 287 289 291 292 294 294 293 293 292 290 292 295 296 297 298 299 301 302
244 243 245 246 246 246 247 251 251 255 265 270 271 280 281 279 279 280 280 282 278 281 283 288 291 292 289 289 289 290 292 292 292 294 297 298 300 303
243 244 246 247 249 249 247 248 248 248 258 272 274 278 275 277 282 283 284 280 279 279 282 287 290 290 286 287 286 289 290 291 292 292 293 296 299 301
241 242 245 244 247 251 249 249 250 250 254 265 273 276 274 275 281 284 290 284 283 282 282 286 288 289 286 285 283 284 288 289 290 292 292 293 296 298
246 244 244 242 246 248 251 253 254 255 255 259 269 272 273 274 283 284 285 288 288 285 282 283 285 289 288 286 284 284 285 288 291 293 295 295 295 297
255 253 251 247 249 251 255 254 255 254 253 256 266 273 273 274 277 286 290 291 293 292 288 289 287 284 283 284 284 288 287 287 291 294 296 295 296 296
263 262 260 257 258 260 259 254 250 248 248 252 261 268 271 272 274 282 285 295 295 291 297 294 292 290 291 286 283 290 291 290 292 295 295 294 295 295
262 268 271 260 261 262 265 264 258 250 249 250 256 260 266 273 279 277 284 292 294 297 300 295 294 292 297 297 299 297 298 297 297 300 299 295 295 298
261 268 279 273 270 270 267 265 262 262 259 259 257 263 270 272 273 276 274 278 281 296 300 286 291 291 300 301 308 308 306 303 299 300 306 307 305 309
272 271 276 280 279 276 266 264 268 272 266 258 261 270 273 274 267 268 275 280 283 280 284 278 290 298 303 299 306 308 313 314 317 317 314 317 315 310
285 284 280 282 288 282 268 269 278 287 288 264 265 270 281 287 284 273 271 275 285 284 283 279 289 300 300 295 301 301 307 313 317 320 321 321 319 312
295 300 299 290 290 286 276 274 279 287 291 284 276 277 279 283 281 267 267 270 281 283 275 284 288 310 303 297 305 308 309 313 316 318 321 322 321 316
297 301 311 324 309 303 295 287 289 293 287 286 287 291 293 285 275 269 268 265 266 270 283 283 280 284 277 290 301 310 317 321 322 319 318 322 323 320
298 304 313 328 319 313 302 299 297 293 284 282 287 290 291 288 286 283 280 275 270 271 278 273 268 269 279 290 292 302 312 316 318 320 324 326 323 318
313 321 320 319 319 314 313 306 295 289 287 286 288 289 293 294 294 291 292 289 289 289 282 267 267 267 266 271 283 293 302 306 312 316 320 323 323 323
316 324 332 334 332 325 318 313 307 303 296 294 298 296 297 299 301 301 298 308 306 313 318 302 288 275 272 271 276 289 298 298 310 318 315 315 320 318
317 322 331 336 342 336 333 325 318 312 308 307 304 304 306 308 307 306 302 309 306 311 325 331 321 303 278 275 278 284 296 303 303 311 313 312 312 315
336 342 330 323 321 319 317 317 316 316 309 305 306 309 311 314 315 321 319 308 306 312 318 326 335 332 306 280 258 279 297 305 310 309 308 309 312 315
11 352 326 314 311 311 311 313 316 316 311 308 312 314 315 315 313 312 312 311 310 313 317 318 319 325 319 314 313 282 294 308 313 315 311 303 301 309
356 341 325 317 311 308 308 309 313 318 315 313 313 316 316 314 314 315 310 310 312 318 322 323 320 309 291 294 299 308 313 302 304 305 311 307 303 299
340 333 321 314 310 309 309 309 310 308 306 306 308 311 312 310 312 313 311 312 310 315 317 315 311 311 299 295 299 313 323 322 303 294 307 310 319 335
325 319 316 314 311 310 310 311 313 315 317 315 312 311 309 308 309 309 310 312 309 304 303 310 322 328 333 316 313 318 327 336 335 316 300 302 308 306
318 311 310 311 310 307 306 310 312 313 312 313 312 311 310 312 310 309 305 304 307 311 317 328 339 345 333 316 317 326 332 337 341 348 350 336 305 294
Height
1467 1468 1468 1468 1468 1468 1468 1467 1468 1465 1463 1462 1462 1460 1459 1458 1457 1456 1454 1453 1451 1450 1448 1447 1445 1444 1442 1441 1440 1438 1437 1435 1434 1432 1430 1429 1427 1425
1463 1463 1463 1463 1463 1463 1463 1462 1462 1462 1459 1457 1457 1456 1455 1454 1452 1451 1450 1448 1447 1445 1443 1442 1440 1439 1437 1436 1434 1433 1431 1430 1428 1427 1425 1424 1422 1421
1458 1458 1458 1459 1458 1458 1458 1458 1457 1457 1454 1453 1453 1452 1450 1449 1448 1446 1445 1444 1442 1440 1439 1437 1435 1433 1432 1430 1429 1427 1426 1424 1423 1421 1420 1419 1417 1416
1453 1454 1454 1454 1454 1454 1453 1453 1452 1452 1451 1449 1448 1447 1446 1445 1443 1442 1440 1439 1438 1436 1434 1432 1430 1428 1426 1425 1423 1421 1420 1419 1418 1416 1415 1414 1412 1411
1449 1449 1449 1448 1448 1449 1448 1448 1447 1447 1446 1445 1443 1442 1441 1440 1439 1438 1436 1434 1433 1431 1430 1427 1425 1423 1421 1419 1418 1416 1415 1414 1413 1411 1410 1408 1407 1406
1444 1444 1444 1443 1444 1444 1444 1443 1443 1442 1441 1440 1439 1438 1437 1436 1435 1433 1432 1430 1428 1427 1425 1423 1421 1419 1417 1415 1413 1411 1410 1409 1408 1406 1405 1404 1403 1401
1439 1439 1439 1439 1439 1439 1439 1438 1438 1438 1437 1436 1435 1434 1433 1432 1430 1429 1428 1426 1424 1423 1421 1419 1417 1415 1413 1411 1409 1407 1406 1405 1403 1402 1401 1400 1398 1397
1435 1435 1435 1435 1434 1434 1434 1434 1434 1433 1432 1432 1430 1430 1429 1428 1427 1426 1424 1422 1420 1419 1417 1415 1413 1411 1409 1407 1405 1404 1402 1400 1399 1398 1396 1395 1393 1392
1432 1431 1431 1431 1430 1430 1429 1429 1429 1428 1428 1428 1426 1425 1424 1424 1423 1422 1421 1419 1417 1415 1413 1411 1409 1407 1406 1404 1402 1400 1398 1397 1395 1394 1392 1391 1389 1387
1429 1428 1427 1427 1426 1426 1426 1425 1424 1423 1423 1423 1422 1421 1421 1420 1419 1418 1417 1415 1413 1412 1410 1408 1406 1404 1402 1401 1399 1397 1395 1393 1392 1390 1389 1387 1385 1383
1425 1425 1424 1423 1423 1423 1422 1421 1420 1419 1419 1419 1418 1418 1417 1416 1416 1415 1413 1412 1409 1408 1407 1405 1402 1401 1399 1398 1396 1394 1393 1391 1389 1387 1385 1384 1382 1380
1422 1421 1421 1421 1420 1420 1419 1418 1417 1416 1416 1416 1415 1414 1413 1412 1412 1411 1410 1408 1406 1405 1404 1403 1400 1399 1396 1395 1394 1392 1390 1388 1386 1384 1382 1380 1378 1377
1419 1419 1419 1418 1418 1417 1416 1415 1414 1414 1414 1413 1412 1410 1409 1409 1408 1407 1406 1405 1404 1402 1402 1400 1398 1397 1396 1393 1391 1390 1388 1385 1383 1381 1379 1377 1375 1374
1417 1416 1416 1416 1415 1414 1413 1412 1412 1412 1411 1410 1409 1407 1406 1406 1405 1404 1403 1402 1401 1400 1399 1398 1396 1395 1393 1390 1388 1387 1385 1383 1381 1379 1377 1375 1373 1371
1415 1414 1414 1413 1412 1411 1410 1409 1409 1409 1408 1407 1406 1405 1404 1403 1402 1401 1400 1399 1398 1397 1396 1395 1394 1392 1391 1388 1386 1384 1383 1381 1379 1377 1375 1373 1371 1369
1413 1412 1411 1410 1409 1409 1408 1407 1406 1406 1405 1405 1403 1403 1402 1401 1400 1399 1398 1397 1395 1394 1394 1392 1391 1390 1388 1386 1385 1383 1381 1380 1378 1376 1373 1371 1369 1367
1411 1410 1409 1408 1407 1406 1406 1405 1404 1404 1403 1402 1401 1401 1400 1399 1397 1397 1396 1394 1393 1392 1391 1390 1389 1388 1386 1385 1383 1381 1380 1378 1376 1374 1372 1369 1368 1366
1410 1408 1408 1407 1406 1405 1404 1403 1403 1402 1401 1401 1400 1399 1398 1397 1396 1395 1394 1392 1391 1390 1389 1388 1387 1386 1385 1383 1382 1380 1378 1376 1374 1372 1370 1368 1366 1365
1408 1407 1406 1406 1405 1404 1403 1402 1401 1401 1400 1399 1398 1397 1396 1395 1394 1393 1392 1391 1390 1389 1388 1387 1385 1384 1383 1381 1380 1379 1377 1375 1373 1371 1369 1367 1365 1363
1407 1406 1405 1404 1404 1403 1402 1401 1400 1399 1398 1397 1396 1396 1395 1394 1393 1392 1391 1390 1389 1388 1387 1386 1385 1383 1382 1381 1379 1377 1376 1374 1371 1369 1368 1366 1364 1362
1406 1405 1404 1403 1402 1401 1401 1400 1399 1398 1397 1396 1395 1394 1393 1392 1391 1390 1390 1389 1388 1387 1386 1385 1384 1383 1382 1380 1378 1376 1374 1373 1371 1369 1367 1365 1362 1360
1405 1404 1403 1402 1401 1400 1399 1398 1397 1396 1395 1394 1394 1393 1392 1391 1390 1390 1389 1388 1387 1386 1385 1385 1384 1383 1381 1379 1377 1375 1373 1372 1370 1368 1366 1365 1363 1360
1403 1402 1401 1400 1399 1398 1397 1397 1395 1395 1394 1393 1393 1392 1391 1390 1390 1389 1388 1387 1386 1386 1385 1384 1383 1382 1380 1379 1377 1375 1373 1371 1369 1367 1366 1364 1363 1362